Year,Month,Day,Hour,Minute,Value (Times are PST for temperature in C)
2009,07,16,00,00,15.30
2009,07,16,00,01,15.20
2009,07,16,00,02,15.20
2009,07,16,00,03,15.20
2009,07,16,00,04,15.20
2009,07,16,00,05,15.20
2009,07,16,00,06,15.10
2009,07,16,00,07,15.10
2009,07,16,00,08,15.10
2009,07,16,00,09,15.10
2009,07,16,00,10,15.10
2009,07,16,00,11,15.00
2009,07,16,00,12,15.00
2009,07,16,00,13,14.90
2009,07,16,00,14,14.90
2009,07,16,00,15,14.80
2009,07,16,00,16,14.80
2009,07,16,00,17,14.80
2009,07,16,00,18,14.80
2009,07,16,00,19,14.80
2009,07,16,00,20,14.80
2009,07,16,00,21,14.70
2009,07,16,00,22,14.70
2009,07,16,00,23,14.60
2009,07,16,00,24,14.60
2009,07,16,00,25,14.60
2009,07,16,00,26,14.60
2009,07,16,00,27,14.50
2009,07,16,00,28,14.50
2009,07,16,00,29,14.50
2009,07,16,00,30,14.50
2009,07,16,00,31,14.40
2009,07,16,00,32,14.40
2009,07,16,00,33,14.40
2009,07,16,00,34,14.40
2009,07,16,00,35,14.40
2009,07,16,00,36,14.40
2009,07,16,00,37,14.40
2009,07,16,00,38,14.40
2009,07,16,00,39,14.50
2009,07,16,00,40,14.50
2009,07,16,00,41,14.60
2009,07,16,00,42,14.60
2009,07,16,00,43,14.60
2009,07,16,00,44,14.60
2009,07,16,00,45,14.70
2009,07,16,00,46,14.70
2009,07,16,00,47,14.70
2009,07,16,00,48,14.70
2009,07,16,00,49,14.70
2009,07,16,00,50,14.70
2009,07,16,00,51,14.70
2009,07,16,00,52,14.70
2009,07,16,00,53,14.70
2009,07,16,00,54,14.70
2009,07,16,00,55,14.70
2009,07,16,00,56,14.70
2009,07,16,00,57,14.70
2009,07,16,00,58,14.70
2009,07,16,00,59,14.70
2009,07,16,01,00,14.70
2009,07,16,01,01,14.70
2009,07,16,01,02,14.70
2009,07,16,01,03,14.70
2009,07,16,01,04,14.70
2009,07,16,01,05,14.70
2009,07,16,01,06,14.70
2009,07,16,01,07,14.60
2009,07,16,01,08,14.60
2009,07,16,01,09,14.60
2009,07,16,01,10,14.60
2009,07,16,01,11,14.60
2009,07,16,01,12,14.50
2009,07,16,01,13,14.50
2009,07,16,01,14,14.50
2009,07,16,01,15,14.50
2009,07,16,01,16,14.50
2009,07,16,01,17,14.40
2009,07,16,01,18,14.40
2009,07,16,01,19,14.40
2009,07,16,01,20,14.40
2009,07,16,01,21,14.40
2009,07,16,01,22,14.30
2009,07,16,01,23,14.30
2009,07,16,01,24,14.30
2009,07,16,01,25,14.30
2009,07,16,01,26,14.30
2009,07,16,01,27,14.30
2009,07,16,01,28,14.30
2009,07,16,01,29,14.30
2009,07,16,01,30,14.20
2009,07,16,01,31,14.20
2009,07,16,01,32,14.20
2009,07,16,01,33,14.20
2009,07,16,01,34,14.20
2009,07,16,01,35,14.20
2009,07,16,01,36,14.20
2009,07,16,01,37,14.20
2009,07,16,01,38,14.10
2009,07,16,01,39,14.00
2009,07,16,01,40,13.90
2009,07,16,01,41,13.90
2009,07,16,01,42,13.80
2009,07,16,01,43,13.70
2009,07,16,01,44,13.70
2009,07,16,01,45,13.70
2009,07,16,01,46,13.60
2009,07,16,01,47,13.50
2009,07,16,01,48,13.40
2009,07,16,01,49,13.30
2009,07,16,01,50,13.20
2009,07,16,01,51,13.10
2009,07,16,01,52,13.00
2009,07,16,01,53,12.90
2009,07,16,01,54,12.90
2009,07,16,01,55,12.80
2009,07,16,01,56,12.80
2009,07,16,01,57,12.70
2009,07,16,01,58,12.70
2009,07,16,01,59,12.70
2009,07,16,02,00,12.60
2009,07,16,02,01,12.60
2009,07,16,02,02,12.60
2009,07,16,02,03,12.60
2009,07,16,02,04,12.60
2009,07,16,02,05,12.60
2009,07,16,02,06,12.60
2009,07,16,02,07,12.60
2009,07,16,02,08,12.60
2009,07,16,02,09,12.60
2009,07,16,02,10,12.60
2009,07,16,02,11,12.60
2009,07,16,02,12,12.60
2009,07,16,02,13,12.60
2009,07,16,02,14,12.60
2009,07,16,02,15,12.60
2009,07,16,02,16,12.60
2009,07,16,02,17,12.60
2009,07,16,02,18,12.60
2009,07,16,02,19,12.70
2009,07,16,02,20,12.70
2009,07,16,02,21,12.70
2009,07,16,02,22,12.70
2009,07,16,02,23,12.70
2009,07,16,02,24,12.70
2009,07,16,02,25,12.70
2009,07,16,02,26,12.70
2009,07,16,02,27,12.70
2009,07,16,02,28,12.70
2009,07,16,02,29,12.70
2009,07,16,02,30,12.70
2009,07,16,02,31,12.70
2009,07,16,02,32,12.70
2009,07,16,02,33,12.70
2009,07,16,02,34,12.70
2009,07,16,02,35,12.60
2009,07,16,02,36,12.60
2009,07,16,02,37,12.60
2009,07,16,02,38,12.60
2009,07,16,02,39,12.60
2009,07,16,02,40,12.60
2009,07,16,02,41,12.60
2009,07,16,02,42,12.60
2009,07,16,02,43,12.60
2009,07,16,02,44,12.50
2009,07,16,02,45,12.50
2009,07,16,02,46,12.50
2009,07,16,02,47,12.40
2009,07,16,02,48,12.40
2009,07,16,02,49,12.40
2009,07,16,02,50,12.30
2009,07,16,02,51,12.30
2009,07,16,02,52,12.30
2009,07,16,02,53,12.30
2009,07,16,02,54,12.30
2009,07,16,02,55,12.20
2009,07,16,02,56,12.20
2009,07,16,02,57,12.20
2009,07,16,02,58,12.10
2009,07,16,02,59,12.10
2009,07,16,03,00,12.10
2009,07,16,03,01,12.10
2009,07,16,03,02,12.10
2009,07,16,03,03,12.00
2009,07,16,03,04,12.00
2009,07,16,03,05,12.00
2009,07,16,03,06,12.00
2009,07,16,03,07,12.00
2009,07,16,03,08,12.00
2009,07,16,03,09,11.90
2009,07,16,03,10,11.90
2009,07,16,03,11,11.90
2009,07,16,03,12,11.90
2009,07,16,03,13,11.90
2009,07,16,03,14,11.80
2009,07,16,03,15,11.80
2009,07,16,03,16,11.80
2009,07,16,03,17,11.80
2009,07,16,03,18,11.80
2009,07,16,03,19,11.80
2009,07,16,03,20,11.80
2009,07,16,03,21,11.80
2009,07,16,03,22,11.70
2009,07,16,03,23,11.70
2009,07,16,03,24,11.70
2009,07,16,03,25,11.70
2009,07,16,03,26,11.70
2009,07,16,03,27,11.70
2009,07,16,03,28,11.70
2009,07,16,03,29,11.60
2009,07,16,03,30,11.60
2009,07,16,03,31,11.60
2009,07,16,03,32,11.60
2009,07,16,03,33,11.60
2009,07,16,03,34,11.60
2009,07,16,03,35,11.60
2009,07,16,03,36,11.60
2009,07,16,03,37,11.60
2009,07,16,03,38,11.60
2009,07,16,03,39,11.60
2009,07,16,03,40,11.60
2009,07,16,03,41,11.50
2009,07,16,03,42,11.40
2009,07,16,03,43,11.40
2009,07,16,03,44,11.40
2009,07,16,03,45,11.40
2009,07,16,03,46,11.40
2009,07,16,03,47,11.40
2009,07,16,03,48,11.40
2009,07,16,03,49,11.40
2009,07,16,03,50,11.40
2009,07,16,03,51,11.40
2009,07,16,03,52,11.40
2009,07,16,03,53,11.40
2009,07,16,03,54,11.40
2009,07,16,03,55,11.40
2009,07,16,03,56,11.40
2009,07,16,03,57,11.40
2009,07,16,03,58,11.40
2009,07,16,03,59,11.40
2009,07,16,04,00,11.40
2009,07,16,04,01,11.40
2009,07,16,04,02,11.40
2009,07,16,04,03,11.40
2009,07,16,04,04,11.40
2009,07,16,04,05,11.40
2009,07,16,04,06,11.40
2009,07,16,04,07,11.40
2009,07,16,04,08,11.40
2009,07,16,04,09,11.40
2009,07,16,04,10,11.40
2009,07,16,04,11,11.40
2009,07,16,04,12,11.40
2009,07,16,04,13,11.40
2009,07,16,04,14,11.40
2009,07,16,04,15,11.40
2009,07,16,04,16,11.40
2009,07,16,04,17,11.40
2009,07,16,04,18,11.40
2009,07,16,04,19,11.40
2009,07,16,04,20,11.40
2009,07,16,04,21,11.40
2009,07,16,04,22,11.40
2009,07,16,04,23,11.40
2009,07,16,04,24,11.40
2009,07,16,04,25,11.40
2009,07,16,04,26,11.40
2009,07,16,04,27,11.40
2009,07,16,04,28,11.40
2009,07,16,04,29,11.40
2009,07,16,04,30,11.40
2009,07,16,04,31,11.40
2009,07,16,04,32,11.40
2009,07,16,04,33,11.40
2009,07,16,04,34,11.40
2009,07,16,04,35,11.40
2009,07,16,04,36,11.40
2009,07,16,04,37,11.40
2009,07,16,04,38,11.40
2009,07,16,04,39,11.40
2009,07,16,04,40,11.40
2009,07,16,04,41,11.40
2009,07,16,04,42,11.40
2009,07,16,04,43,11.40
2009,07,16,04,44,11.40
2009,07,16,04,45,11.40
2009,07,16,04,46,11.40
2009,07,16,04,47,11.40
2009,07,16,04,48,11.40
2009,07,16,04,49,11.40
2009,07,16,04,50,11.40
2009,07,16,04,51,11.40
2009,07,16,04,52,11.40
2009,07,16,04,53,11.40
2009,07,16,04,54,11.40
2009,07,16,04,55,11.40
2009,07,16,04,56,11.40
2009,07,16,04,57,11.30
2009,07,16,04,58,11.30
2009,07,16,04,59,11.30
2009,07,16,05,00,11.30
2009,07,16,05,01,11.30
2009,07,16,05,02,11.30
2009,07,16,05,03,11.20
2009,07,16,05,04,11.20
2009,07,16,05,05,11.20
2009,07,16,05,06,11.20
2009,07,16,05,07,11.20
2009,07,16,05,08,11.20
2009,07,16,05,09,11.20
2009,07,16,05,10,11.20
2009,07,16,05,11,11.20
2009,07,16,05,12,11.20
2009,07,16,05,13,11.20
2009,07,16,05,14,11.20
2009,07,16,05,15,11.20
2009,07,16,05,16,11.20
2009,07,16,05,17,11.20
2009,07,16,05,18,11.30
2009,07,16,05,19,11.30
2009,07,16,05,20,11.30
2009,07,16,05,21,11.30
2009,07,16,05,22,11.20
2009,07,16,05,23,11.20
2009,07,16,05,24,11.20
2009,07,16,05,25,11.20
2009,07,16,05,26,11.20
2009,07,16,05,27,11.20
2009,07,16,05,28,11.20
2009,07,16,05,29,11.20
2009,07,16,05,30,11.20
2009,07,16,05,31,11.20
2009,07,16,05,32,11.20
2009,07,16,05,33,11.20
2009,07,16,05,34,11.20
2009,07,16,05,35,11.20
2009,07,16,05,36,11.20
2009,07,16,05,37,11.20
2009,07,16,05,38,11.20
2009,07,16,05,39,11.20
2009,07,16,05,40,11.20
2009,07,16,05,41,11.20
2009,07,16,05,42,11.20
2009,07,16,05,43,11.20
2009,07,16,05,44,11.20
2009,07,16,05,45,11.20
2009,07,16,05,46,11.20
2009,07,16,05,47,11.20
2009,07,16,05,48,11.20
2009,07,16,05,49,11.20
2009,07,16,05,50,11.20
2009,07,16,05,51,11.20
2009,07,16,05,52,11.20
2009,07,16,05,53,11.20
2009,07,16,05,54,11.30
2009,07,16,05,55,11.30
2009,07,16,05,56,11.30
2009,07,16,05,57,11.40
2009,07,16,05,58,11.40
2009,07,16,05,59,11.40
2009,07,16,06,00,11.40
2009,07,16,06,01,11.40
2009,07,16,06,02,11.40
2009,07,16,06,03,11.40
2009,07,16,06,04,11.40
2009,07,16,06,05,11.40
2009,07,16,06,06,11.40
2009,07,16,06,07,11.40
2009,07,16,06,08,11.40
2009,07,16,06,09,11.40
2009,07,16,06,10,11.50
2009,07,16,06,11,11.60
2009,07,16,06,12,11.60
2009,07,16,06,13,11.60
2009,07,16,06,14,11.60
2009,07,16,06,15,11.70
2009,07,16,06,16,11.70
2009,07,16,06,17,11.80
2009,07,16,06,18,11.80
2009,07,16,06,19,11.90
2009,07,16,06,20,12.00
2009,07,16,06,21,12.00
2009,07,16,06,22,12.10
2009,07,16,06,23,12.10
2009,07,16,06,24,12.20
2009,07,16,06,25,12.20
2009,07,16,06,26,12.30
2009,07,16,06,27,12.30
2009,07,16,06,28,12.30
2009,07,16,06,29,12.40
2009,07,16,06,30,12.40
2009,07,16,06,31,12.40
2009,07,16,06,32,12.40
2009,07,16,06,33,12.40
2009,07,16,06,34,12.40
2009,07,16,06,35,12.50
2009,07,16,06,36,12.50
2009,07,16,06,37,12.50
2009,07,16,06,38,12.50
2009,07,16,06,39,12.60
2009,07,16,06,40,12.60
2009,07,16,06,41,12.60
2009,07,16,06,42,12.60
2009,07,16,06,43,12.70
2009,07,16,06,44,12.70
2009,07,16,06,45,12.80
2009,07,16,06,46,12.80
2009,07,16,06,47,12.90
2009,07,16,06,48,13.00
2009,07,16,06,49,13.10
2009,07,16,06,50,13.20
2009,07,16,06,51,13.20
2009,07,16,06,52,13.30
2009,07,16,06,53,13.40
2009,07,16,06,54,13.50
2009,07,16,06,55,13.50
2009,07,16,06,56,13.60
2009,07,16,06,57,13.60
2009,07,16,06,58,13.60
2009,07,16,06,59,13.60
2009,07,16,07,00,13.60
2009,07,16,07,01,13.60
2009,07,16,07,02,13.60
2009,07,16,07,03,13.70
2009,07,16,07,04,13.70
2009,07,16,07,05,13.60
2009,07,16,07,06,13.60
2009,07,16,07,07,13.70
2009,07,16,07,08,13.70
2009,07,16,07,09,13.80
2009,07,16,07,10,13.80
2009,07,16,07,11,13.90
2009,07,16,07,12,13.90
2009,07,16,07,13,13.90
2009,07,16,07,14,13.90
2009,07,16,07,15,13.90
2009,07,16,07,16,14.00
2009,07,16,07,17,14.10
2009,07,16,07,18,14.20
2009,07,16,07,19,14.20
2009,07,16,07,20,14.30
2009,07,16,07,21,14.40
2009,07,16,07,22,14.40
2009,07,16,07,23,14.50
2009,07,16,07,24,14.60
2009,07,16,07,25,14.60
2009,07,16,07,26,14.60
2009,07,16,07,27,14.60
2009,07,16,07,28,14.60
2009,07,16,07,29,14.60
2009,07,16,07,30,14.70
2009,07,16,07,31,14.70
2009,07,16,07,32,14.80
2009,07,16,07,33,14.90
2009,07,16,07,34,15.00
2009,07,16,07,35,15.10
2009,07,16,07,36,15.20
2009,07,16,07,37,15.30
2009,07,16,07,38,15.40
2009,07,16,07,39,15.50
2009,07,16,07,40,15.50
2009,07,16,07,41,15.50
2009,07,16,07,42,15.40
2009,07,16,07,43,15.40
2009,07,16,07,44,15.30
2009,07,16,07,45,15.20
2009,07,16,07,46,15.10
2009,07,16,07,47,14.90
2009,07,16,07,48,14.80
2009,07,16,07,49,14.80
2009,07,16,07,50,14.80
2009,07,16,07,51,14.70
2009,07,16,07,52,14.70
2009,07,16,07,53,14.70
2009,07,16,07,54,14.80
2009,07,16,07,55,14.90
2009,07,16,07,56,14.90
2009,07,16,07,57,15.00
2009,07,16,07,58,15.10
2009,07,16,07,59,15.20
2009,07,16,08,00,15.30
2009,07,16,08,01,15.40
2009,07,16,08,02,15.50
2009,07,16,08,03,15.70
2009,07,16,08,04,15.80
2009,07,16,08,05,15.90
2009,07,16,08,06,16.10
2009,07,16,08,07,16.20
2009,07,16,08,08,16.20
2009,07,16,08,09,16.30
2009,07,16,08,10,16.30
2009,07,16,08,11,16.40
2009,07,16,08,12,16.40
2009,07,16,08,13,16.40
2009,07,16,08,14,16.40
2009,07,16,08,15,16.40
2009,07,16,08,16,16.40
2009,07,16,08,17,16.40
2009,07,16,08,18,16.40
2009,07,16,08,19,16.30
2009,07,16,08,20,16.30
2009,07,16,08,21,16.40
2009,07,16,08,22,16.40
2009,07,16,08,23,16.40
2009,07,16,08,24,16.60
2009,07,16,08,25,16.50
2009,07,16,08,26,16.40
2009,07,16,08,27,16.40
2009,07,16,08,28,16.30
2009,07,16,08,29,16.30
2009,07,16,08,30,16.20
2009,07,16,08,31,16.10
2009,07,16,08,32,15.90
2009,07,16,08,33,15.80
2009,07,16,08,34,15.80
2009,07,16,08,35,15.80
2009,07,16,08,36,15.70
2009,07,16,08,37,15.70
2009,07,16,08,38,15.70
2009,07,16,08,39,15.70
2009,07,16,08,40,15.80
2009,07,16,08,41,15.80
2009,07,16,08,42,15.90
2009,07,16,08,43,16.00
2009,07,16,08,44,16.10
2009,07,16,08,45,16.20
2009,07,16,08,46,16.20
2009,07,16,08,47,16.30
2009,07,16,08,48,16.40
2009,07,16,08,49,16.40
2009,07,16,08,50,16.60
2009,07,16,08,51,16.70
2009,07,16,08,52,16.70
2009,07,16,08,53,16.80
2009,07,16,08,54,16.90
2009,07,16,08,55,17.00
2009,07,16,08,56,17.00
2009,07,16,08,57,16.90
2009,07,16,08,58,16.90
2009,07,16,08,59,16.90
2009,07,16,09,00,16.80
2009,07,16,09,01,16.70
2009,07,16,09,02,16.60
2009,07,16,09,03,16.40
2009,07,16,09,04,16.30
2009,07,16,09,05,16.20
2009,07,16,09,06,16.10
2009,07,16,09,07,16.20
2009,07,16,09,08,16.10
2009,07,16,09,09,16.10
2009,07,16,09,10,16.00
2009,07,16,09,11,15.80
2009,07,16,09,12,15.80
2009,07,16,09,13,15.80
2009,07,16,09,14,15.80
2009,07,16,09,15,15.80
2009,07,16,09,16,15.90
2009,07,16,09,17,15.90
2009,07,16,09,18,15.90
2009,07,16,09,19,15.90
2009,07,16,09,20,15.80
2009,07,16,09,21,15.80
2009,07,16,09,22,15.80
2009,07,16,09,23,15.80
2009,07,16,09,24,15.80
2009,07,16,09,25,15.80
2009,07,16,09,26,15.80
2009,07,16,09,27,15.80
2009,07,16,09,28,15.80
2009,07,16,09,29,15.80
2009,07,16,09,30,15.70
2009,07,16,09,31,15.60
2009,07,16,09,32,15.50
2009,07,16,09,33,15.50
2009,07,16,09,34,15.40
2009,07,16,09,35,15.40
2009,07,16,09,36,15.30
2009,07,16,09,37,15.30
2009,07,16,09,38,15.30
2009,07,16,09,39,15.30
2009,07,16,09,40,15.30
2009,07,16,09,41,15.30
2009,07,16,09,42,15.30
2009,07,16,09,43,15.40
2009,07,16,09,44,15.50
2009,07,16,09,45,15.60
2009,07,16,09,46,15.70
2009,07,16,09,47,15.80
2009,07,16,09,48,15.90
2009,07,16,09,49,16.00
2009,07,16,09,50,16.10
2009,07,16,09,51,16.10
2009,07,16,09,52,16.10
2009,07,16,09,53,16.20
2009,07,16,09,54,16.30
2009,07,16,09,55,16.40
2009,07,16,09,56,16.40
2009,07,16,09,57,16.50
2009,07,16,09,58,16.60
2009,07,16,09,59,16.80
2009,07,16,10,00,16.80
2009,07,16,10,01,16.90
2009,07,16,10,02,16.90
2009,07,16,10,03,17.00
2009,07,16,10,04,17.10
2009,07,16,10,05,17.20
2009,07,16,10,06,17.10
2009,07,16,10,07,17.00
2009,07,16,10,08,17.00
2009,07,16,10,09,17.10
2009,07,16,10,10,17.30
2009,07,16,10,11,17.40
2009,07,16,10,12,17.60
2009,07,16,10,13,17.80
2009,07,16,10,14,17.90
2009,07,16,10,15,17.90
2009,07,16,10,16,17.90
2009,07,16,10,17,17.70
2009,07,16,10,18,17.60
2009,07,16,10,19,17.60
2009,07,16,10,20,17.60
2009,07,16,10,21,17.60
2009,07,16,10,22,17.60
2009,07,16,10,23,17.70
2009,07,16,10,24,17.70
2009,07,16,10,25,17.70
2009,07,16,10,26,17.60
2009,07,16,10,27,17.60
2009,07,16,10,28,17.60
2009,07,16,10,29,17.50
2009,07,16,10,30,17.40
2009,07,16,10,31,17.40
2009,07,16,10,32,17.50
2009,07,16,10,33,17.70
2009,07,16,10,34,17.80
2009,07,16,10,35,17.80
2009,07,16,10,36,17.90
2009,07,16,10,37,17.90
2009,07,16,10,38,17.90
2009,07,16,10,39,17.90
2009,07,16,10,40,17.90
2009,07,16,10,41,18.00
2009,07,16,10,42,18.10
2009,07,16,10,43,18.20
2009,07,16,10,44,18.40
2009,07,16,10,45,18.50
2009,07,16,10,46,18.50
2009,07,16,10,47,18.50
2009,07,16,10,48,18.60
2009,07,16,10,49,18.60
2009,07,16,10,50,18.60
2009,07,16,10,51,18.50
2009,07,16,10,52,18.50
2009,07,16,10,53,18.50
2009,07,16,10,54,18.50
2009,07,16,10,55,18.60
2009,07,16,10,56,18.60
2009,07,16,10,57,18.60
2009,07,16,10,58,18.50
2009,07,16,10,59,18.50
2009,07,16,11,00,18.40
2009,07,16,11,01,18.50
2009,07,16,11,02,18.50
2009,07,16,11,03,18.60
2009,07,16,11,04,18.70
2009,07,16,11,05,18.80
2009,07,16,11,06,18.90
2009,07,16,11,07,19.10
2009,07,16,11,08,19.10
2009,07,16,11,09,19.00
2009,07,16,11,10,18.90
2009,07,16,11,11,19.10
2009,07,16,11,12,19.10
2009,07,16,11,13,19.10
2009,07,16,11,14,19.10
2009,07,16,11,15,19.00
2009,07,16,11,16,18.90
2009,07,16,11,17,19.00
2009,07,16,11,18,19.10
2009,07,16,11,19,19.10
2009,07,16,11,20,19.20
2009,07,16,11,21,19.30
2009,07,16,11,22,19.40
2009,07,16,11,23,19.50
2009,07,16,11,24,19.60
2009,07,16,11,25,19.60
2009,07,16,11,26,19.50
2009,07,16,11,27,19.40
2009,07,16,11,28,19.30
2009,07,16,11,29,19.30
2009,07,16,11,30,19.10
2009,07,16,11,31,19.10
2009,07,16,11,32,19.10
2009,07,16,11,33,19.10
2009,07,16,11,34,19.00
2009,07,16,11,35,18.90
2009,07,16,11,36,18.90
2009,07,16,11,37,18.90
2009,07,16,11,38,18.90
2009,07,16,11,39,18.90
2009,07,16,11,40,18.90
2009,07,16,11,41,18.90
2009,07,16,11,42,19.00
2009,07,16,11,43,19.10
2009,07,16,11,44,19.10
2009,07,16,11,45,19.10
2009,07,16,11,46,19.00
2009,07,16,11,47,18.90
2009,07,16,11,48,18.90
2009,07,16,11,49,18.90
2009,07,16,11,50,18.90
2009,07,16,11,51,19.10
2009,07,16,11,52,19.10
2009,07,16,11,53,19.20
2009,07,16,11,54,19.20
2009,07,16,11,55,19.30
2009,07,16,11,56,19.40
2009,07,16,11,57,19.60
2009,07,16,11,58,19.60
2009,07,16,11,59,19.60
2009,07,16,12,00,19.70
2009,07,16,12,01,19.70
2009,07,16,12,02,19.70
2009,07,16,12,03,19.70
2009,07,16,12,04,19.60
2009,07,16,12,05,19.60
2009,07,16,12,06,19.50
2009,07,16,12,07,19.60
2009,07,16,12,08,19.70
2009,07,16,12,09,19.80
2009,07,16,12,10,19.90
2009,07,16,12,11,20.00
2009,07,16,12,12,20.10
2009,07,16,12,13,20.20
2009,07,16,12,14,20.10
2009,07,16,12,15,20.10
2009,07,16,12,16,20.00
2009,07,16,12,17,19.90
2009,07,16,12,18,19.90
2009,07,16,12,19,19.80
2009,07,16,12,20,19.80
2009,07,16,12,21,19.80
2009,07,16,12,22,19.70
2009,07,16,12,23,19.70
2009,07,16,12,24,19.70
2009,07,16,12,25,19.70
2009,07,16,12,26,19.80
2009,07,16,12,27,19.80
2009,07,16,12,28,19.90
2009,07,16,12,29,19.90
2009,07,16,12,30,19.90
2009,07,16,12,31,19.90
2009,07,16,12,32,19.90
2009,07,16,12,33,19.90
2009,07,16,12,34,19.90
2009,07,16,12,35,19.90
2009,07,16,12,36,19.90
2009,07,16,12,37,19.90
2009,07,16,12,38,19.90
2009,07,16,12,39,19.70
2009,07,16,12,40,19.60
2009,07,16,12,41,19.60
2009,07,16,12,42,19.50
2009,07,16,12,43,19.50
2009,07,16,12,44,19.60
2009,07,16,12,45,19.60
2009,07,16,12,46,19.60
2009,07,16,12,47,19.60
2009,07,16,12,48,19.70
2009,07,16,12,49,19.80
2009,07,16,12,50,19.80
2009,07,16,12,51,19.80
2009,07,16,12,52,19.70
2009,07,16,12,53,19.70
2009,07,16,12,54,19.80
2009,07,16,12,55,19.90
2009,07,16,12,56,20.00
2009,07,16,12,57,20.10
2009,07,16,12,58,20.20
2009,07,16,12,59,20.20
2009,07,16,13,00,20.10
2009,07,16,13,01,20.10
2009,07,16,13,02,20.10
2009,07,16,13,03,20.10
2009,07,16,13,04,20.10
2009,07,16,13,05,20.10
2009,07,16,13,06,20.10
2009,07,16,13,07,20.20
2009,07,16,13,08,20.30
2009,07,16,13,09,20.40
2009,07,16,13,10,20.50
2009,07,16,13,11,20.50
2009,07,16,13,12,20.70
2009,07,16,13,13,20.80
2009,07,16,13,14,20.90
2009,07,16,13,15,21.00
2009,07,16,13,16,21.10
2009,07,16,13,17,21.20
2009,07,16,13,18,21.30
2009,07,16,13,19,21.30
2009,07,16,13,20,21.30
2009,07,16,13,21,21.30
2009,07,16,13,22,21.30
2009,07,16,13,23,21.30
2009,07,16,13,24,21.30
2009,07,16,13,25,21.30
2009,07,16,13,26,21.20
2009,07,16,13,27,21.30
2009,07,16,13,28,21.30
2009,07,16,13,29,21.30
2009,07,16,13,30,21.30
2009,07,16,13,31,21.30
2009,07,16,13,32,21.30
2009,07,16,13,33,21.30
2009,07,16,13,34,21.30
2009,07,16,13,35,21.40
2009,07,16,13,36,21.50
2009,07,16,13,37,21.60
2009,07,16,13,38,21.70
2009,07,16,13,39,21.60
2009,07,16,13,40,21.50
2009,07,16,13,41,21.40
2009,07,16,13,42,21.40
2009,07,16,13,43,21.30
2009,07,16,13,44,21.50
2009,07,16,13,45,21.60
2009,07,16,13,46,21.70
2009,07,16,13,47,21.80
2009,07,16,13,48,22.00
2009,07,16,13,49,22.10
2009,07,16,13,50,22.20
2009,07,16,13,51,22.30
2009,07,16,13,52,22.30
2009,07,16,13,53,22.20
2009,07,16,13,54,22.10
2009,07,16,13,55,21.90
2009,07,16,13,56,21.90
2009,07,16,13,57,21.90
2009,07,16,13,58,21.90
2009,07,16,13,59,22.00
2009,07,16,14,00,22.10
2009,07,16,14,01,22.20
2009,07,16,14,02,22.30
2009,07,16,14,03,22.30
2009,07,16,14,04,22.40
2009,07,16,14,05,22.50
2009,07,16,14,06,22.60
2009,07,16,14,07,22.70
2009,07,16,14,08,22.60
2009,07,16,14,09,22.50
2009,07,16,14,10,22.40
2009,07,16,14,11,22.50
2009,07,16,14,12,22.50
2009,07,16,14,13,22.50
2009,07,16,14,14,22.40
2009,07,16,14,15,22.40
2009,07,16,14,16,22.50
2009,07,16,14,17,22.50
2009,07,16,14,18,22.40
2009,07,16,14,19,22.30
2009,07,16,14,20,22.30
2009,07,16,14,21,22.20
2009,07,16,14,22,22.20
2009,07,16,14,23,22.30
2009,07,16,14,24,22.30
2009,07,16,14,25,22.40
2009,07,16,14,26,22.50
2009,07,16,14,27,22.50
2009,07,16,14,28,22.60
2009,07,16,14,29,22.70
2009,07,16,14,30,22.80
2009,07,16,14,31,23.00
2009,07,16,14,32,23.10
2009,07,16,14,33,23.10
2009,07,16,14,34,23.20
2009,07,16,14,35,23.30
2009,07,16,14,36,23.30
2009,07,16,14,37,23.30
2009,07,16,14,38,23.30
2009,07,16,14,39,23.30
2009,07,16,14,40,23.40
2009,07,16,14,41,23.40
2009,07,16,14,42,23.40
2009,07,16,14,43,23.30
2009,07,16,14,44,23.40
2009,07,16,14,45,23.40
2009,07,16,14,46,23.40
2009,07,16,14,47,23.40
2009,07,16,14,48,23.40
2009,07,16,14,49,23.30
2009,07,16,14,50,23.30
2009,07,16,14,51,23.30
2009,07,16,14,52,23.40
2009,07,16,14,53,23.50
2009,07,16,14,54,23.60
2009,07,16,14,55,23.70
2009,07,16,14,56,23.80
2009,07,16,14,57,23.90
2009,07,16,14,58,24.10
2009,07,16,14,59,24.20
2009,07,16,15,00,24.40
2009,07,16,15,01,24.60
2009,07,16,15,02,24.80
2009,07,16,15,03,24.90
2009,07,16,15,04,24.90
2009,07,16,15,05,25.00
2009,07,16,15,06,25.10
2009,07,16,15,07,25.10
2009,07,16,15,08,25.10
2009,07,16,15,09,25.20
2009,07,16,15,10,25.20
2009,07,16,15,11,25.10
2009,07,16,15,12,25.20
2009,07,16,15,13,25.30
2009,07,16,15,14,25.30
2009,07,16,15,15,25.40
2009,07,16,15,16,25.40
2009,07,16,15,17,25.40
2009,07,16,15,18,25.40
2009,07,16,15,19,25.40
2009,07,16,15,20,25.30
2009,07,16,15,21,25.30
2009,07,16,15,22,25.30
2009,07,16,15,23,25.40
2009,07,16,15,24,25.60
2009,07,16,15,25,25.70
2009,07,16,15,26,25.70
2009,07,16,15,27,25.60
2009,07,16,15,28,25.60
2009,07,16,15,29,25.50
2009,07,16,15,30,25.60
2009,07,16,15,31,25.70
2009,07,16,15,32,25.70
2009,07,16,15,33,25.80
2009,07,16,15,34,25.90
2009,07,16,15,35,25.90
2009,07,16,15,36,26.00
2009,07,16,15,37,26.10
2009,07,16,15,38,26.20
2009,07,16,15,39,26.20
2009,07,16,15,40,26.30
2009,07,16,15,41,26.10
2009,07,16,15,42,26.00
2009,07,16,15,43,26.00
2009,07,16,15,44,26.10
2009,07,16,15,45,26.20
2009,07,16,15,46,26.30
2009,07,16,15,47,26.40
2009,07,16,15,48,26.50
2009,07,16,15,49,26.60
2009,07,16,15,50,26.70
2009,07,16,15,51,26.80
2009,07,16,15,52,26.90
2009,07,16,15,53,26.90
2009,07,16,15,54,26.90
2009,07,16,15,55,26.90
2009,07,16,15,56,26.90
2009,07,16,15,57,27.00
2009,07,16,15,58,27.10
2009,07,16,15,59,27.10
2009,07,16,16,00,27.10
2009,07,16,16,01,27.10
2009,07,16,16,02,27.10
2009,07,16,16,03,27.20
2009,07,16,16,04,27.20
2009,07,16,16,05,27.30
2009,07,16,16,06,27.30
2009,07,16,16,07,27.30
2009,07,16,16,08,27.30
2009,07,16,16,09,27.30
2009,07,16,16,10,27.30
2009,07,16,16,11,27.30
2009,07,16,16,12,27.40
2009,07,16,16,13,27.40
2009,07,16,16,14,27.40
2009,07,16,16,15,27.30
2009,07,16,16,16,27.30
2009,07,16,16,17,27.30
2009,07,16,16,18,27.30
2009,07,16,16,19,27.30
2009,07,16,16,20,27.20
2009,07,16,16,21,27.10
2009,07,16,16,22,26.90
2009,07,16,16,23,26.80
2009,07,16,16,24,26.80
2009,07,16,16,25,26.70
2009,07,16,16,26,26.70
2009,07,16,16,27,26.70
2009,07,16,16,28,26.70
2009,07,16,16,29,26.80
2009,07,16,16,30,26.80
2009,07,16,16,31,26.70
2009,07,16,16,32,26.70
2009,07,16,16,33,26.60
2009,07,16,16,34,26.60
2009,07,16,16,35,26.70
2009,07,16,16,36,26.80
2009,07,16,16,37,26.90
2009,07,16,16,38,26.90
2009,07,16,16,39,26.90
2009,07,16,16,40,26.90
2009,07,16,16,41,26.90
2009,07,16,16,42,26.90
2009,07,16,16,43,27.00
2009,07,16,16,44,27.10
2009,07,16,16,45,27.10
2009,07,16,16,46,27.20
2009,07,16,16,47,27.20
2009,07,16,16,48,27.20
2009,07,16,16,49,27.20
2009,07,16,16,50,27.20
2009,07,16,16,51,27.20
2009,07,16,16,52,27.10
2009,07,16,16,53,27.10
2009,07,16,16,54,26.90
2009,07,16,16,55,26.90
2009,07,16,16,56,26.80
2009,07,16,16,57,26.80
2009,07,16,16,58,26.90
2009,07,16,16,59,26.90
2009,07,16,17,00,27.10
2009,07,16,17,01,27.10
2009,07,16,17,02,27.20
2009,07,16,17,03,27.20
2009,07,16,17,04,27.20
2009,07,16,17,05,27.20
2009,07,16,17,06,27.20
2009,07,16,17,07,27.10
2009,07,16,17,08,27.00
2009,07,16,17,09,26.80
2009,07,16,17,10,26.80
2009,07,16,17,11,26.80
2009,07,16,17,12,26.90
2009,07,16,17,13,26.90
2009,07,16,17,14,27.00
2009,07,16,17,15,27.10
2009,07,16,17,16,27.20
2009,07,16,17,17,27.20
2009,07,16,17,18,27.30
2009,07,16,17,19,27.30